Select another period ( hide this area )

Units Period Custom range Directly to
Metric English Both
Daily Weekly Monthly Yearly
use both date-selectors for a custom range
previous Day
With this date
Daily Summary for Wednesday Jun 19 2024
Time Temp. ( °C ) Dew pt. ( °C ) Wind ( km/h ) From Gust ( km/h ) Pressure ( hPa ) Humid.( % ) Rainrate ( cm ) Solar ( W/m2 )
High15,2 10,4 26,0 SW ( 606/1583 ) 26,0 1009,8 85 - 831
Average12,4 9,4 13,2 SW #44/120 12,5 1008,4 82 - 218 #70/120
Low11,3 8,6 -   0,0 1007,7 72 -  
Daily Tabular details for Wednesday Jun 19 2024
Time Temp. ( °C ) Dew pt. ( °C ) Wind ( km/h ) From Gust ( km/h ) Pressure ( hPa ) Humid.( % ) Rainrate ( cm ) Solar ( W/m2 )
00:04 11,6 8,7 11,0 SW 6,0 1009,8 82 - -
00:09 11,5 8,7 2,0 SSW 11,0 1009,7 83 - -
00:14 11,4 8,7 8,0 SSW 2,0 1009,7 83 - -
00:19 11,4 8,6 7,0 SSW 8,0 1009,7 83 - -
00:24 11,3 8,6 2,0 WSW   1009,7 83 - -
00:29 11,4 8,6 6,0 SSW 2,0 1009,7 83 - -
00:34 11,4 8,7 6,0 SW 6,0 1009,7 83 - -
00:39 11,6 8,8   Calm 5,0 1009,6 83 - -
00:44 11,6 8,8 11,0 SSW 2,0 1009,5 83 - -
00:49 11,7 8,7 11,0 SSW 11,0 1009,5 82 - -
00:54 11,7 8,7 6,0 South 11,0 1009,4 82 - -
00:59 11,8 8,7 10,0 SW 5,0 1009,4 82 - -
01:04 11,8 8,7 7,0 SW 10,0 1009,3 81 - -
01:09 11,8 8,7 11,0 WSW 3,0 1009,3 81 - -
01:14 11,8 8,7 15,0 SSW 11,0 1009,3 81 - -
01:19 11,9 8,7 19,0 SSW 15,0 1009,3 81 - -
01:24 11,9 8,7 17,0 SSW 19,0 1009,3 81 - -
01:29 11,8 8,7 6,0 SSW 16,0 1009,3 81 - -
01:34 11,8 8,7 6,0 SSW 6,0 1009,2 81 - -
01:39 11,8 8,8 13,0 SSW 5,0 1009,1 82 - -
01:44 11,8 8,8 13,0 SW 13,0 1009,2 82 - -
01:49 11,8 8,8 13,0 SW 6,0 1009,1 82 - -
01:54 11,8 8,8 2,0 SW 13,0 1009,1 82 - -
01:59 11,8 9,1   Calm 2,0 1009,1 83 - -
02:04 11,8 9,1 10,0 SW 2,0 1009,1 83 - -
02:09 11,8 9,1 9,0 SW 10,0 1009,1 83 - -
02:14 11,8 9,1 16,0 SSW 8,0 1009,1 83 - -
02:19 11,8 9,1 17,0 SW 16,0 1009,0 83 - -
02:24 11,8 9,1 8,0 SSW 16,0 1009,0 83 - -
02:29 11,8 9,1 10,0 SSW 8,0 1009,0 83 - -
02:34 11,8 9,1 15,0 SSW 10,0 1008,9 83 - -
02:39 11,9 9,1 19,0 SSW 15,0 1008,9 83 - -
02:44 11,9 9,1 6,0 SW 19,0 1008,9 83 - -
02:49 11,8 9,1 17,0 SSW 6,0 1008,8 83 - -
02:54 11,8 9,1 2,0 SW 16,0 1008,7 83 - -
02:59 11,8 9,1 8,0 SW 2,0 1008,7 83 - -
03:04 11,8 9,1 6,0 SW 8,0 1008,6 83 - -
03:09 11,8 9,1 19,0 SW 10,0 1008,5 83 - -
03:14 11,8 9,1 23,0 SSW 19,0 1008,4 83 - -
03:19 11,8 9,1 22,0 SSW 23,0 1008,4 83 - -
03:24 11,8 9,1 15,0 SSW 19,0 1008,4 83 - -
03:29 11,8 9,1 15,0 SSW 15,0 1008,3 83 - -
03:34 11,8 9,1 18,0 SW 15,0 1008,3 83 - -
03:39 11,8 9,1 11,0 SW 18,0 1008,3 83 - -
03:44 11,8 9,0 8,0 SSW 11,0 1008,2 83 - -
03:49 11,7 8,9 10,0 SSW 8,0 1008,2 83 - -
03:54 11,7 9,0 10,0 SW 10,0 1008,2 84 - -
03:59 11,6 9,0   Calm 10,0 1008,2 84 - -
04:04 11,6 9,0 8,0 SSW 1,0 1008,2 84 - -
04:09 11,6 9,0 6,0 SW 8,0 1008,2 84 - -
04:14 11,7 9,1 11,0 SSW 6,0 1008,1 84 - 5
04:19 11,7 9,1 15,0 SSW 11,0 1008,1 84 - 5
04:24 11,7 9,1 15,0 SW 15,0 1008,1 84 - 7
04:29 11,7 9,1 11,0 SSW 15,0 1008,0 84 - 9
04:34 11,7 9,3 19,0 SSW 19,0 1007,9 85 - 12
04:39 11,8 9,3 19,0 SSW 19,0 1007,9 85 - 14
04:44 11,8 9,4 19,0 SSW 19,0 1007,9 85 - 14
04:49 11,8 9,3 11,0 SW 19,0 1007,9 85 - 14
04:54 11,8 9,4 6,0 SSW 11,0 1008,0 85 - 19
04:59 11,8 9,4 10,0 SSW 2,0 1008,0 85 - 25
05:04 11,8 9,4 10,0 SW 10,0 1008,0 85 - 35
05:09 11,9 9,4 21,0 SSW 10,0 1007,9 85 - 53
05:14 11,9 9,5 19,0 South 21,0 1008,0 85 - 53
05:19 12,0 9,6 5,0 SW 19,0 1007,9 85 - 28
05:24 12,0 9,6 18,0 SSW 7,0 1007,9 85 - 42
05:29 11,9 9,5 19,0 SW 19,0 1007,8 85 - 39
05:34 11,9 9,4 2,0 SSW 8,0 1007,9 85 - 49
05:39 11,9 9,4 4,0 SSW 2,0 1007,9 85 - 49
05:44 11,9 9,4 19,0 SSW 7,0 1007,8 85 - 39
05:49 11,9 9,4 19,0 SW 19,0 1007,9 85 - 58
05:54 11,9 9,4 10,0 WSW 19,0 1007,8 85 - 76
05:59 11,9 9,5 2,0 WSW 10,0 1007,8 85 - 76
06:04 12,1 9,6 19,0 SW 9,0 1007,8 85 - 95
06:09 12,2 9,7 19,0 SSW 19,0 1007,8 85 - 86
06:14 12,2 9,7 10,0 SW 19,0 1007,8 85 - 107
06:19 12,2 9,8 17,0 SW 10,0 1007,8 85 - 172
06:24 12,3 9,7 21,0 SW 16,0 1007,8 84 - 148
06:29 12,3 9,7 21,0 SW 21,0 1007,7 84 - 155
06:34 12,4 9,6 21,0 SSW 21,0 1007,8 83 - 116
06:39 12,4 9,6 19,0 SW 21,0 1007,8 83 - 102
06:44 12,4 9,6 8,0 SW 15,0 1007,8 83 - 77
06:49 12,5 9,7 6,0 South 8,0 1007,8 83 - 83
06:54 12,6 9,7 6,0 SSW 5,0 1007,8 83 - 88
06:59 12,6 9,8 10,0 SW 3,0 1007,8 83 - 79
07:04 12,6 9,7 16,0 SSW 10,0 1007,7 83 - 93
07:09 12,5 9,7 17,0 South 16,0 1007,8 83 - 86
07:14 12,6 9,7 19,0 WSW 3,0 1007,8 83 - 109
07:19 12,6 9,6 8,0 WNW 19,0 1007,8 82 - 151
07:24 12,6 9,6 6,0 WSW 8,0 1007,7 82 - 148
07:29 12,7 9,7 10,0 SW 6,0 1007,7 82 - 336
07:34 12,9 9,9 19,0 WSW 10,0 1007,7 82 - 427
07:39 13,1 10,0 19,0 WSW 19,0 1007,8 82 - 413
07:44 13,1 9,9 19,0 SW 19,0 1007,8 81 - 322
07:49 13,1 9,7 21,0 WSW 15,0 1007,9 80 - 172
07:54 13,0 9,8 6,0 WSW 21,0 1007,9 81 - 172
07:59 13,0 9,8 10,0 WNW 8,0 1007,9 81 - 111
08:04 13,0 9,8 17,0 WNW 10,0 1007,9 81 - 186
08:09 13,0 9,8 17,0 SW 16,0 1007,9 81 - 276
08:14 13,1 9,8 21,0 SW 16,0 1008,0 81 - 278
08:19 13,2 9,8 24,0 SW 21,0 1008,0 80 - 359
08:24 13,2 9,8 24,0 SW 24,0 1007,9 80 - 179
08:29 13,2 9,8 13,0 SW 24,0 1007,9 80 - 536
08:34 13,4 9,9 24,0 WSW 12,0 1008,0 80 - 589
08:39 13,4 9,9 19,0 WSW 24,0 1008,0 79 - 214
08:44 13,7 10,0 11,0 WSW 11,0 1008,0 79 - 336
08:49 13,8 10,0 19,0 WSW 11,0 1008,0 78 - 353
08:54 13,8 9,8 19,0 SW 19,0 1008,0 77 - 232
08:59 13,9 9,8 15,0 West 19,0 1008,1 77 - 715
09:04 14,2 10,2 13,0 West 15,0 1008,1 77 - 715
09:09 14,3 10,2 15,0 WNW 13,0 1008,0 77 - 197
09:14 14,3 10,2 15,0 WNW 15,0 1008,0 76 - 174
09:19 14,0 9,8 19,0 SW 15,0 1008,0 76 - 652
09:24 14,2 10,1 19,0 WSW 19,0 1008,1 76 - 668
09:29 14,5 10,1 19,0 WSW 19,0 1008,2 75 - 705
09:34 14,7 10,1 26,0 SW 10,0 1008,3 75 - 663
09:39 14,7 9,7 26,0 SW 26,0 1008,3 72 - 823
09:44 15,2 10,4 6,0 West 21,0 1008,2 73 - 831
09:49 15,2 10,4 19,0 WSW 6,0 1008,3 73 - 313
09:54 14,9 9,7 21,0 WSW 19,0 1008,3 72 - 255
09:59 14,6 9,6 21,0 WSW 21,0 1008,3 72 - 457
Daily Summary for Wednesday Jun 19 2024
Time Temp. ( °C ) Dew pt. ( °C ) Wind ( km/h ) From Gust ( km/h ) Pressure ( hPa ) Humid.( % ) Rainrate ( cm ) Solar ( W/m2 )
High15,2 10,4 26,0 SW ( 606/1583 ) 26,0 1009,8 85 - 831
Average12,4 9,4 13,2 SW #44/120 12,5 1008,4 82 - 218 #70/120
Low11,3 8,6 -   0,0 1007,7 72 -  
Daily Tabular details for Wednesday Jun 19 2024
Time Temp. ( °C ) Dew pt. ( °C ) Wind ( km/h ) From Gust ( km/h ) Pressure ( hPa ) Humid.( % ) Rainrate ( cm ) Solar ( W/m2 )
00:04 11,6 8,7 11,0 SW 6,0 1009,8 82 - -
00:09 11,5 8,7 2,0 SSW 11,0 1009,7 83 - -
00:14 11,4 8,7 8,0 SSW 2,0 1009,7 83 - -
00:19 11,4 8,6 7,0 SSW 8,0 1009,7 83 - -
00:24 11,3 8,6 2,0 WSW   1009,7 83 - -
00:29 11,4 8,6 6,0 SSW 2,0 1009,7 83 - -
00:34 11,4 8,7 6,0 SW 6,0 1009,7 83 - -
00:39 11,6 8,8   Calm 5,0 1009,6 83 - -
00:44 11,6 8,8 11,0 SSW 2,0 1009,5 83 - -
00:49 11,7 8,7 11,0 SSW 11,0 1009,5 82 - -
00:54 11,7 8,7 6,0 South 11,0 1009,4 82 - -
00:59 11,8 8,7 10,0 SW 5,0 1009,4 82 - -
01:04 11,8 8,7 7,0 SW 10,0 1009,3 81 - -
01:09 11,8 8,7 11,0 WSW 3,0 1009,3 81 - -
01:14 11,8 8,7 15,0 SSW 11,0 1009,3 81 - -
01:19 11,9 8,7 19,0 SSW 15,0 1009,3 81 - -
01:24 11,9 8,7 17,0 SSW 19,0 1009,3 81 - -
01:29 11,8 8,7 6,0 SSW 16,0 1009,3 81 - -
01:34 11,8 8,7 6,0 SSW 6,0 1009,2 81 - -
01:39 11,8 8,8 13,0 SSW 5,0 1009,1 82 - -
01:44 11,8 8,8 13,0 SW 13,0 1009,2 82 - -
01:49 11,8 8,8 13,0 SW 6,0 1009,1 82 - -
01:54 11,8 8,8 2,0 SW 13,0 1009,1 82 - -
01:59 11,8 9,1   Calm 2,0 1009,1 83 - -
02:04 11,8 9,1 10,0 SW 2,0 1009,1 83 - -
02:09 11,8 9,1 9,0 SW 10,0 1009,1 83 - -
02:14 11,8 9,1 16,0 SSW 8,0 1009,1 83 - -
02:19 11,8 9,1 17,0 SW 16,0 1009,0 83 - -
02:24 11,8 9,1 8,0 SSW 16,0 1009,0 83 - -
02:29 11,8 9,1 10,0 SSW 8,0 1009,0 83 - -
02:34 11,8 9,1 15,0 SSW 10,0 1008,9 83 - -
02:39 11,9 9,1 19,0 SSW 15,0 1008,9 83 - -
02:44 11,9 9,1 6,0 SW 19,0 1008,9 83 - -
02:49 11,8 9,1 17,0 SSW 6,0 1008,8 83 - -
02:54 11,8 9,1 2,0 SW 16,0 1008,7 83 - -
02:59 11,8 9,1 8,0 SW 2,0 1008,7 83 - -
03:04 11,8 9,1 6,0 SW 8,0 1008,6 83 - -
03:09 11,8 9,1 19,0 SW 10,0 1008,5 83 - -
03:14 11,8 9,1 23,0 SSW 19,0 1008,4 83 - -
03:19 11,8 9,1 22,0 SSW 23,0 1008,4 83 - -
03:24 11,8 9,1 15,0 SSW 19,0 1008,4 83 - -
03:29 11,8 9,1 15,0 SSW 15,0 1008,3 83 - -
03:34 11,8 9,1 18,0 SW 15,0 1008,3 83 - -
03:39 11,8 9,1 11,0 SW 18,0 1008,3 83 - -
03:44 11,8 9,0 8,0 SSW 11,0 1008,2 83 - -
03:49 11,7 8,9 10,0 SSW 8,0 1008,2 83 - -
03:54 11,7 9,0 10,0 SW 10,0 1008,2 84 - -
03:59 11,6 9,0   Calm 10,0 1008,2 84 - -
04:04 11,6 9,0 8,0 SSW 1,0 1008,2 84 - -
04:09 11,6 9,0 6,0 SW 8,0 1008,2 84 - -
04:14 11,7 9,1 11,0 SSW 6,0 1008,1 84 - 5
04:19 11,7 9,1 15,0 SSW 11,0 1008,1 84 - 5
04:24 11,7 9,1 15,0 SW 15,0 1008,1 84 - 7
04:29 11,7 9,1 11,0 SSW 15,0 1008,0 84 - 9
04:34 11,7 9,3 19,0 SSW 19,0 1007,9 85 - 12
04:39 11,8 9,3 19,0 SSW 19,0 1007,9 85 - 14
04:44 11,8 9,4 19,0 SSW 19,0 1007,9 85 - 14
04:49 11,8 9,3 11,0 SW 19,0 1007,9 85 - 14
04:54 11,8 9,4 6,0 SSW 11,0 1008,0 85 - 19
04:59 11,8 9,4 10,0 SSW 2,0 1008,0 85 - 25
05:04 11,8 9,4 10,0 SW 10,0 1008,0 85 - 35
05:09 11,9 9,4 21,0 SSW 10,0 1007,9 85 - 53
05:14 11,9 9,5 19,0 South 21,0 1008,0 85 - 53
05:19 12,0 9,6 5,0 SW 19,0 1007,9 85 - 28
05:24 12,0 9,6 18,0 SSW 7,0 1007,9 85 - 42
05:29 11,9 9,5 19,0 SW 19,0 1007,8 85 - 39
05:34 11,9 9,4 2,0 SSW 8,0 1007,9 85 - 49
05:39 11,9 9,4 4,0 SSW 2,0 1007,9 85 - 49
05:44 11,9 9,4 19,0 SSW 7,0 1007,8 85 - 39
05:49 11,9 9,4 19,0 SW 19,0 1007,9 85 - 58
05:54 11,9 9,4 10,0 WSW 19,0 1007,8 85 - 76
05:59 11,9 9,5 2,0 WSW 10,0 1007,8 85 - 76
06:04 12,1 9,6 19,0 SW 9,0 1007,8 85 - 95
06:09 12,2 9,7 19,0 SSW 19,0 1007,8 85 - 86
06:14 12,2 9,7 10,0 SW 19,0 1007,8 85 - 107
06:19 12,2 9,8 17,0 SW 10,0 1007,8 85 - 172
06:24 12,3 9,7 21,0 SW 16,0 1007,8 84 - 148
06:29 12,3 9,7 21,0 SW 21,0 1007,7 84 - 155
06:34 12,4 9,6 21,0 SSW 21,0 1007,8 83 - 116
06:39 12,4 9,6 19,0 SW 21,0 1007,8 83 - 102
06:44 12,4 9,6 8,0 SW 15,0 1007,8 83 - 77
06:49 12,5 9,7 6,0 South 8,0 1007,8 83 - 83
06:54 12,6 9,7 6,0 SSW 5,0 1007,8 83 - 88
06:59 12,6 9,8 10,0 SW 3,0 1007,8 83 - 79
07:04 12,6 9,7 16,0 SSW 10,0 1007,7 83 - 93
07:09 12,5 9,7 17,0 South 16,0 1007,8 83 - 86
07:14 12,6 9,7 19,0 WSW 3,0 1007,8 83 - 109
07:19 12,6 9,6 8,0 WNW 19,0 1007,8 82 - 151
07:24 12,6 9,6 6,0 WSW 8,0 1007,7 82 - 148
07:29 12,7 9,7 10,0 SW 6,0 1007,7 82 - 336
07:34 12,9 9,9 19,0 WSW 10,0 1007,7 82 - 427
07:39 13,1 10,0 19,0 WSW 19,0 1007,8 82 - 413
07:44 13,1 9,9 19,0 SW 19,0 1007,8 81 - 322
07:49 13,1 9,7 21,0 WSW 15,0 1007,9 80 - 172
07:54 13,0 9,8 6,0 WSW 21,0 1007,9 81 - 172
07:59 13,0 9,8 10,0 WNW 8,0 1007,9 81 - 111
08:04 13,0 9,8 17,0 WNW 10,0 1007,9 81 - 186
08:09 13,0 9,8 17,0 SW 16,0 1007,9 81 - 276
08:14 13,1 9,8 21,0 SW 16,0 1008,0 81 - 278
08:19 13,2 9,8 24,0 SW 21,0 1008,0 80 - 359
08:24 13,2 9,8 24,0 SW 24,0 1007,9 80 - 179
08:29 13,2 9,8 13,0 SW 24,0 1007,9 80 - 536
08:34 13,4 9,9 24,0 WSW 12,0 1008,0 80 - 589
08:39 13,4 9,9 19,0 WSW 24,0 1008,0 79 - 214
08:44 13,7 10,0 11,0 WSW 11,0 1008,0 79 - 336
08:49 13,8 10,0 19,0 WSW 11,0 1008,0 78 - 353
08:54 13,8 9,8 19,0 SW 19,0 1008,0 77 - 232
08:59 13,9 9,8 15,0 West 19,0 1008,1 77 - 715
09:04 14,2 10,2 13,0 West 15,0 1008,1 77 - 715
09:09 14,3 10,2 15,0 WNW 13,0 1008,0 77 - 197
09:14 14,3 10,2 15,0 WNW 15,0 1008,0 76 - 174
09:19 14,0 9,8 19,0 SW 15,0 1008,0 76 - 652
09:24 14,2 10,1 19,0 WSW 19,0 1008,1 76 - 668
09:29 14,5 10,1 19,0 WSW 19,0 1008,2 75 - 705
09:34 14,7 10,1 26,0 SW 10,0 1008,3 75 - 663
09:39 14,7 9,7 26,0 SW 26,0 1008,3 72 - 823
09:44 15,2 10,4 6,0 West 21,0 1008,2 73 - 831
09:49 15,2 10,4 19,0 WSW 6,0 1008,3 73 - 313
09:54 14,9 9,7 21,0 WSW 19,0 1008,3 72 - 255
09:59 14,6 9,6 21,0 WSW 21,0 1008,3 72 - 457

Download your copy of this data-set  from WeatherUnderground

Our weather-data as stored at Weather Underground. Original script b Jim McMurry. Rewritten for template use Leuven-Template